Location: Dehesa de la Cepeda
(40.6574°N, 4.3013°W)
Time: 23:14:06
(UTC+00:00)

SR - Pass Details

Date: 06 August 2021
Orbit: 580 x 874 km, 66.7° (Epoch: 17 September)

Event Time Altitude Azimuth Distance (km) Brightness Sun altitude
Rises 04:38:27 0° 198° (SSW) 3,444 ? -7.7°
Reaches altitude 10° 04:40:59 10° 195° (SSW) 2,498 ? -7.3°
Maximum altitude 04:46:43 64° 116° (ESE) 930 ? -6.3°
Drops below altitude 10° 04:52:11 10° 36° (NE) 2,383 ? -5.4°
Sets 04:54:33 0° 33° (NNE) 3,275 ? -5.0°
